Regional Weather Roundup
Issued by NWS Upton, NY

Current Version | Previous Version | Graphics & Text | Print | Product List | Glossary Off
Versions: 1 2 3 4 5 6 7 8 9 10 11 12 13 14 15 16 17 18 19 20 21 22 23 24 25 26 27 28 29 30 31 32 33 34 35 36 37 38 39 40 41 42 43 44 45 46 47 48 49 50

000
ASUS41 KOKX 012105
RWROKX

REGIONAL WEATHER ROUNDUP
NATIONAL WEATHER SERVICE NEW YORK NY
400 PM EST SUN FEB 01 2015

NOTE: "FAIR" INDICATES FEW OR NO CLOUDS BELOW 12,000 FEET WITH NO
SIGNIFICANT WEATHER AND/OR OBSTRUCTIONS TO VISIBILITY.

NYZ071-072-176-178-NJZ106-104-012200-
NEW YORK CITY METRO AREA


CITY           SKY/WX    TMP DP  RH WIND       PRES   REMARKS
CENTRAL PARK   CLOUDY    35  19  52 VRB3      30.16S
LAGUARDIA APRT PTSUNNY   35  19  52 W10       30.14S WCI  27
KENNEDY INTL   CLOUDY    35  23  61 SW8       30.16S WCI  29
NEWARK/LIBERTY CLOUDY    35  22  58 W9        30.15S WCI  28
BRNX BOT. GARD   N/A    N/A N/A N/A NW5       30.16R
TETERBORO      CLOUDY    36  19  50 SW9       30.14S WCI  29
$$

NYZ177-179-078>081-012200-
LONG ISLAND NEW YORK

CITY           SKY/WX    TMP DP  RH WIND       PRES   REMARKS
FARMINGDALE    CLOUDY    34  20  56 W10       30.15R WCI  26
ISLIP          PTSUNNY   34  18  52 W9        30.13R WCI  27
SHIRLEY        PTSUNNY   35  18  49 NW9       30.15R WCI  28
WESTHAMPTON    CLOUDY    35  18  49 W7        30.15R WCI  29
MONTAUK POINT    N/A     33  20  58 W7        30.15R WCI  27
$$

NYZ052-065-067-012200-
HUDSON VALLEY

CITY           SKY/WX    TMP DP  RH WIND       PRES   REMARKS
WHITE PLAINS   PTSUNNY   34  19  54 NW6       30.11S WCI  29
NEWBURGH       MOSUNNY   32  19  59 NW9       30.12R WCI  24
MONTGOMERY     CLOUDY    34  17  50 NW7       30.10S WCI  28
POUGHKEEPSIE   PTSUNNY   35  16  45 W5        30.12S WCI  31
ALBANY         PTSUNNY   25   9  50 NE7       30.16R WCI  17
$$

NJZ001-105-106-008-010-013-015-019>022-104-012200-
NEW JERSEY

CITY           SKY/WX    TMP DP  RH WIND       PRES   REMARKS
NEWARK/LIBERTY CLOUDY    35  22  58 W9        30.15S WCI  28
TETERBORO      CLOUDY    36  19  50 SW9       30.14S WCI  29
CALDWELL       PTSUNNY   34  19  54 W3        30.13F
MORRISTOWN     PTSUNNY   34  19  55 W6        30.13F WCI  29
SOMERVILLE     PTSUNNY   38  20  48 CALM      30.11F
SUSSEX         CLOUDY    34  20  56 VRB3      30.11R
ANDOVER          N/A     32  20  61 CALM      30.11S
TRENTON        CLOUDY    36  22  56 SW5       30.12F WCI  32
MILLVILLE      CLOUDY    38  22  52 S5        30.14F WCI  34
ATLANTIC CITY  CLOUDY    39  19  44 SW7       30.15F WCI  34
WRIGHTSTOWN    CLOUDY    38  25  59 W6        30.11F WCI  33
TOMS RIVER     CLOUDY    37  21  52 CALM      30.13F
BELMAR         CLOUDY    37  18  44 W6        30.14F WCI  33
$$

PAZ047>061-062-071-012200-
EASTERN PENNSYLVANIA

CITY           SKY/WX    TMP DP  RH WIND       PRES   REMARKS
PHILADELPHIA   CLOUDY    39  25  57 E5        30.14F
ALLENTOWN      CLOUDY    35  23  61 CALM      30.11F
SCRANTON       LGT SNOW  30  23  75 CALM      30.07F
$$

CTZ002-004>006-009-010-012-RIZ004-006-007-MAZ004-011-015-012200-
SOUTHERN NEW ENGLAND
 IN CT

CITY           SKY/WX    TMP DP  RH WIND       PRES   REMARKS
BRADLEY INTL   MOCLDY    32  11  41 NW10      30.11R WCI  24
HARTFORD       CLOUDY    32  11  41 VRB7      30.13R WCI  26
DANBURY        PTSUNNY   32  15  49 SW8       30.12S WCI  25
WTRBRY/OXFORD  NOT AVBL
BRIDGEPORT     CLOUDY    34  25  69 SW7       30.13S WCI  28
MERIDEN        CLOUDY    33  15  47 W6        30.13S WCI  28
NEW HAVEN      PTSUNNY   33  23  66 S3        30.14R
CHESTER        MOCLDY    32  14  47 NW6       30.12R WCI  26
GROTON         CLEAR     31  15  52 W6        30.13R WCI  25
WILLIMANTIC    CLEAR     33   9  36 NW6       30.11R WCI  28

 IN RI

CITY           SKY/WX    TMP DP  RH WIND       PRES   REMARKS
PROVIDENCE     PTCLDY    32  11  41 NW12      30.11R WCI  23
BLOCK ISLAND   CLEAR     34  18  51 W8G16     30.11S WCI  27
WESTERLY       CLEAR     35  12  38 W8        30.12S WCI  29

 IN MA

CITY           SKY/WX    TMP DP  RH WIND       PRES   REMARKS
BOSTON         MOCLDY    29   2  31 NW13G21   30.11R WCI  19
WORCESTER      CLEAR     30   8  39 W10       30.05R WCI  21
WESTFIELD      PTCLDY    31   8  38 NW7       30.11R WCI  24
PROVINCETOWN   CLEAR     30  10  43 W17G23    30.10R WCI  18
NANTUCKET      CLEAR     31  17  56 NW14      30.10R WCI  21
$$

ANZ330-335-338-340-345-350-353-355-012200-
COASTAL MARINE OBSERVATIONS


STATION/POSITION TIME  SKY/WX   TEMP    WIND        PRES    VSBY  WAVE
                                AIR SEA DIR/SP/G                  HT/PER
                 (UTC)          (F)     (DEG/KT/KT) (MB)    (MI)  (FT/S)
NY HARB ENTRANCE 2100            36 40  290/  6/  8 1021.0          1/11
4S FIRE IS       NOT AVBL
20S FIRE ISLAND  2000               41              1021.6          2/ 4
23SW MTP         2100                                 N/A           3/ 6
HUDSON CANYON    NOT AVBL
EXECUTION ROCKS  2100            35 32  230/  8/ 10   N/A
WESTERN LI SOUND 2100            35     220/  8/ 10   N/A           0
CENTRAL LI SOUND 2000            32 34  230/  8/ 10   N/A           1/ 4
EASTERN LI SOUND NOT AVBL
ROBBINS REEF     2100            35     300/  6/ 10 1019.6
$$


>>>>>>>>>>>>>>>>>>>>>>>>>>>> KEY <<<<<<<<<<<<<<<<<<<<<<<<<<<
>                                                          <
>     SKY/WX - SKY CONDITION/PRESENT WEATHER               <
>     TMP    - TEMPERATURE IN FAHRENHEIT                   <
>     DP     - DEWPOINT IN FAHRENHEIT                      <
>     RH     - RELATIVE HUMIDITY IN PERCENT                <
>     WIND   - DIRECTION AND SPEED IN MPH                  <
>     PRES   - MEAN SEA LEVEL PRESSURE IN INCHES OF HG     <
>     WCI    - WIND CHILL INDEX                            <
>     VSB    - VISIBILITY IN MILES                         <
>     HX     - HEAT INDEX                                  <
>     TC     - TEMPERATURE IN CELSIUS                      <
>     VRB    - VARIABLE WIND DIRECTION                     <
>                                                          <
>>>>>>>>>>>>>>>>>>>>>>>>>>>> KEY <<<<<<<<<<<<<<<<<<<<<<<<<<<





USA.gov is the U.S. government's official web portal to all federal, state and local government web resources and services.